This is the latest recevied weather packets stored in our database for station/object YO8SHU-10. If no packets are shown the sender has not sent any weather packets the latest 10 day(s).
| Time | Temp. | Humidity | Pressure | Rain* | Wind** | Luminosity | Snow |
|---|---|---|---|---|---|---|---|
| 1788458450 | 20° C | 100% | 1023.3 hPa | - | - | - | - |
| 1788456650 | 21.11° C | 100% | 1022.9 hPa | - | - | - | - |
| 1788454850 | 22.78° C | 100% | 1022.7 hPa | - | - | - | - |
| 1788453049 | 24.44° C | 84% | 1022.5 hPa | - | - | - | - |
| 1788451249 | 25° C | 78% | 1022.2 hPa | - | - | - | - |
| 1788449449 | 25.56° C | 73% | 1021.9 hPa | - | - | - | - |
| 1788447649 | 25.56° C | 73% | 1022.1 hPa | - | - | - | - |
| 1788445849 | 27.78° C | 57% | 1022.1 hPa | - | - | - | - |
| 1788444049 | 28.89° C | 65% | 1022.2 hPa | - | - | - | - |
| 1788442249 | 28.89° C | 55% | 1022.3 hPa | - | - | - | - |
| 1788440449 | 30° C | 58% | 1022.6 hPa | - | - | - | - |
| 1788438649 | 28.89° C | 55% | 1023 hPa | - | - | - | - |
| 1788436848 | 29.44° C | 61% | 1023.3 hPa | - | - | - | - |
| 1788435048 | 27.78° C | 63% | 1023.6 hPa | - | - | - | - |
| 1788433255 | 28.33° C | 69% | 1023.9 hPa | - | - | - | - |
| 1788431448 | 27.22° C | 83% | 1024.3 hPa | - | - | - | - |
| 1788429648 | 26.11° C | 80% | 1024.5 hPa | - | - | - | - |
| 1788427848 | 26.67° C | 92% | 1024.7 hPa | - | - | - | - |
| 1788426048 | 25.56° C | 91% | 1025 hPa | - | - | - | - |
| 1788424248 | 25° C | 96% | 1025.3 hPa | - | - | - | - |
| 1788422448 | 25° C | 95% | 1025.6 hPa | - | - | - | - |
| 1788420647 | 22.78° C | 100% | 1025.6 hPa | - | - | - | - |
| 1788418847 | 22.22° C | 100% | 1025.6 hPa | - | - | - | - |
| 1788417047 | 22.22° C | 100% | 1025.5 hPa | - | - | - | - |
| 1788415247 | 20.56° C | 100% | 1025.6 hPa | - | - | - | - |
* Rain since midnight (hover to see other rain measurements)
** Current wind speed in m/s (hover to see current wind gust speed)